Date,TemperatureHighF,TemperatureAvgF,TemperatureLowF,DewpointHighF,DewpointAvgF,DewpointLowF,HumidityHigh,HumidityAvg,HumidityLow,PressureMaxIn,PressureMinIn,WindSpeedMaxMPH,WindSpeedAvgMPH,GustSpeedMaxMPH,PrecipitationSumIn
2013-10-1,69,63,61,59,57,55,89,80,63,29.43,29.39,18,11,27,0.01
2013-10-2,70,64,60,59,56,48,86,76,56,29.39,29.33,23,12,31,0.01
2013-10-3,66,62,59,58,56,54,88,82,77,29.44,29.35,18,10,25,0.39
2013-10-4,66,61,57,56,53,47,86,75,62,29.83,29.44,17,9,25,0.01
2013-10-5,66,61,55,55,52,49,87,74,57,30.00,29.83,31,16,35,0.06
2013-10-6,64,61,58,60,58,51,92,87,78,30.00,29.95,24,17,30,0.04
2013-10-7,67,62,61,59,57,56,90,83,75,29.99,29.88,37,18,44,0.04
2013-10-8,67,61,56,56,52,48,87,74,60,30.23,29.95,22,9,29,0.00
2013-10-9,63,57,50,51,44,38,75,64,46,30.25,30.16,23,9,34,0.00
2013-10-10,60,51,43,48,39,36,77,64,44,30.33,29.99,14,5,23,0.00
2013-10-11,60,48,37,46,40,33,86,73,55,30.31,30.25,14,6,25,0.00
2013-10-12,54,50,44,47,44,40,87,79,72,30.26,30.06,10,4,18,0.00
2013-10-13,62,53,49,48,46,43,87,78,54,30.06,29.88,8,4,17,0.00
2013-10-14,65,53,47,48,43,40,86,71,44,29.89,29.76,12,4,15,0.00
2013-10-15,60,50,41,47,43,37,91,77,59,29.76,29.52,14,8,23,0.00
2013-10-16,61,56,51,52,49,45,90,78,66,29.63,29.40,31,14,40,0.66
2013-10-17,65,58,53,54,52,48,87,79,65,29.71,29.45,15,10,21,0.05
2013-10-18,60,58,56,55,53,49,87,83,76,29.67,29.29,26,12,43,3.12
2013-10-19,64,58,53,54,52,47,88,80,64,29.28,29.19,20,10,28,0.01
2013-10-20,61,55,52,56,50,47,88,83,69,29.72,29.06,16,9,22,0.08
2013-10-21,60,54,48,56,51,45,89,87,83,29.37,28.99,16,8,28,0.35
2013-10-22,63,58,55,54,52,50,88,82,71,29.00,28.88,21,12,29,0.14
2013-10-23,61,55,45,51,43,38,84,65,44,29.59,28.92,20,12,34,0.39
2013-10-24,62,53,45,54,48,35,88,82,66,30.03,29.37,17,8,30,0.18
2013-10-25,64,58,55,55,52,47,89,81,63,29.95,29.15,20,11,28,0.15
2013-10-26,58,54,50,49,47,42,87,77,63,29.40,28.94,39,19,45,0.45
2013-10-27,59,55,50,49,46,44,84,73,66,29.74,28.82,43,28,56,12.90
2013-10-28,58,53,48,46,42,37,79,68,54,29.63,28.89,29,15,46,0.76
2013-10-29,61,53,46,45,40,37,85,64,42,29.87,29.54,17,11,27,0.00
2013-10-30,61,53,44,52,45,40,88,75,55,29.84,29.49,33,17,45,0.18
2013-10-31,58,53,49,46,44,40,86,71,59,29.76,29.60,33,22,49,2.46